Time,TemperatureF,DewpointF,PressureIn,WindDirection,WindDirectionDegrees,WindSpeedMPH,WindSpeedGustMPH,Humidity,HourlyPrecipIn,Conditions,Clouds,dailyrainin,SolarRadiationWatts/m^2,SoftwareType,DateUTC
2014-07-31 00:05:00,76.4,73.2,29.86,West,263,0.0,0.0,90,0.00,,,0.02,0,Wunderground v.1.15,2014-07-31 04:05:00,
2014-07-31 00:10:00,76.4,73.2,29.86,West,263,0.0,0.0,90,0.00,,,0.02,0,Wunderground v.1.15,2014-07-31 04:10:00,
2014-07-31 00:15:00,76.4,73.2,29.86,West,263,0.0,0.0,90,0.00,,,0.02,0,Wunderground v.1.15,2014-07-31 04:15:00,
2014-07-31 00:20:00,76.3,73.1,29.86,West,263,0.0,0.0,90,0.00,,,0.02,0,Wunderground v.1.15,2014-07-31 04:20:00,
2014-07-31 00:25:00,76.3,73.1,29.86,West,263,0.0,0.0,90,0.00,,,0.02,0,Wunderground v.1.15,2014-07-31 04:25:00,
2014-07-31 00:30:00,76.2,73.1,29.86,West,263,0.0,0.0,90,0.00,,,0.02,0,Wunderground v.1.15,2014-07-31 04:30:00,
2014-07-31 00:40:00,76.3,73.5,29.86,West,263,0.0,0.0,91,0.00,,,0.02,0,Wunderground v.1.15,2014-07-31 04:40:00,
2014-07-31 00:45:00,76.3,73.5,29.86,West,263,0.0,0.0,91,0.00,,,0.02,0,Wunderground v.1.15,2014-07-31 04:45:00,
2014-07-31 00:50:00,76.2,73.4,29.86,West,263,0.0,0.0,91,0.00,,,0.02,0,Wunderground v.1.15,2014-07-31 04:50:00,
2014-07-31 00:55:00,76.2,73.4,29.86,West,263,0.0,0.0,91,0.00,,,0.02,0,Wunderground v.1.15,2014-07-31 04:55:00,
2014-07-31 01:05:00,76.1,73.3,29.86,West,263,0.0,0.0,91,0.00,,,0.02,0,Wunderground v.1.15,2014-07-31 05:05:00,
2014-07-31 01:15:00,76.1,73.3,29.86,West,263,0.0,0.0,91,0.00,,,0.02,0,Wunderground v.1.15,2014-07-31 05:15:00,
2014-07-31 01:20:00,76.0,73.5,29.86,West,263,0.0,0.0,92,0.00,,,0.02,0,Wunderground v.1.15,2014-07-31 05:20:00,
2014-07-31 01:25:00,76.0,73.5,29.86,West,263,0.0,0.0,92,0.00,,,0.02,0,Wunderground v.1.15,2014-07-31 05:25:00,
2014-07-31 01:30:00,76.0,73.5,29.86,West,263,0.0,0.0,92,0.00,,,0.02,0,Wunderground v.1.15,2014-07-31 05:30:00,
2014-07-31 01:35:00,76.0,73.5,29.86,West,263,0.0,0.0,92,0.00,,,0.02,0,Wunderground v.1.15,2014-07-31 05:35:00,
2014-07-31 01:40:00,76.0,73.5,29.86,West,263,0.0,0.0,92,0.00,,,0.02,0,Wunderground v.1.15,2014-07-31 05:40:00,
2014-07-31 01:50:00,75.9,73.4,29.86,West,263,0.0,0.0,92,0.00,,,0.02,0,Wunderground v.1.15,2014-07-31 05:50:00,
2014-07-31 01:55:00,75.8,73.3,29.86,West,263,0.0,0.0,92,0.00,,,0.02,0,Wunderground v.1.15,2014-07-31 05:55:00,
2014-07-31 02:00:00,75.8,73.3,29.85,West,263,0.0,0.0,92,0.00,,,0.02,0,Wunderground v.1.15,2014-07-31 06:00:00,
2014-07-31 02:05:00,75.8,73.3,29.86,West,263,0.0,0.0,92,0.00,,,0.02,0,Wunderground v.1.15,2014-07-31 06:05:00,
2014-07-31 02:15:00,75.9,73.7,29.86,West,267,0.0,1.0,93,0.00,,,0.02,0,Wunderground v.1.15,2014-07-31 06:15:00,
2014-07-31 02:20:00,75.9,73.7,29.86,West,266,0.0,0.0,93,0.00,,,0.02,0,Wunderground v.1.15,2014-07-31 06:20:00,
2014-07-31 02:30:00,76.0,73.8,29.85,West,266,0.0,0.0,93,0.00,,,0.02,0,Wunderground v.1.15,2014-07-31 06:30:00,
2014-07-31 02:35:00,76.0,73.5,29.85,West,261,0.0,0.0,92,0.00,,,0.02,0,Wunderground v.1.15,2014-07-31 06:35:00,
2014-07-31 02:40:00,76.0,73.5,29.85,West,261,0.0,0.0,92,0.00,,,0.02,0,Wunderground v.1.15,2014-07-31 06:40:00,
2014-07-31 02:45:00,76.0,73.5,29.85,West,261,0.0,0.0,92,0.00,,,0.02,0,Wunderground v.1.15,2014-07-31 06:45:00,
2014-07-31 02:55:00,75.9,73.4,29.85,West,261,0.0,0.0,92,0.00,,,0.02,0,Wunderground v.1.15,2014-07-31 06:55:00,
2014-07-31 03:00:00,75.9,73.4,29.84,West,261,0.0,0.0,92,0.00,,,0.02,0,Wunderground v.1.15,2014-07-31 07:00:00,
2014-07-31 03:05:00,75.9,73.4,29.85,West,260,0.0,0.0,92,0.00,,,0.02,0,Wunderground v.1.15,2014-07-31 07:05:00,
2014-07-31 03:10:00,75.9,73.4,29.84,West,260,0.0,0.0,92,0.00,,,0.02,0,Wunderground v.1.15,2014-07-31 07:10:00,
2014-07-31 03:15:00,75.9,73.4,29.84,West,260,0.0,0.0,92,0.00,,,0.02,0,Wunderground v.1.15,2014-07-31 07:15:00,
2014-07-31 03:25:00,75.9,73.4,29.84,West,260,0.0,0.0,92,0.00,,,0.02,0,Wunderground v.1.15,2014-07-31 07:25:00,
2014-07-31 03:35:00,75.9,73.4,29.83,West,260,0.0,0.0,92,0.00,,,0.02,0,Wunderground v.1.15,2014-07-31 07:35:00,
2014-07-31 03:40:00,75.9,73.4,29.83,West,260,0.0,0.0,92,0.00,,,0.02,0,Wunderground v.1.15,2014-07-31 07:40:00,
2014-07-31 03:45:00,75.8,73.3,29.83,West,260,0.0,0.0,92,0.00,,,0.02,0,Wunderground v.1.15,2014-07-31 07:45:00,
2014-07-31 03:50:00,75.8,73.3,29.83,West,260,0.0,0.0,92,0.00,,,0.02,0,Wunderground v.1.15,2014-07-31 07:50:00,
2014-07-31 03:55:00,75.8,73.3,29.83,West,260,0.0,0.0,92,0.00,,,0.02,0,Wunderground v.1.15,2014-07-31 07:55:00,
2014-07-31 04:05:00,75.7,73.2,29.83,West,260,0.0,0.0,92,0.00,,,0.02,0,Wunderground v.1.15,2014-07-31 08:05:00,
2014-07-31 04:10:00,75.7,73.2,29.83,West,260,0.0,0.0,92,0.00,,,0.02,0,Wunderground v.1.15,2014-07-31 08:10:00,
2014-07-31 04:15:00,75.6,73.4,29.83,West,260,0.0,0.0,93,0.00,,,0.02,0,Wunderground v.1.15,2014-07-31 08:15:00,
2014-07-31 04:20:00,75.6,73.4,29.83,West,260,0.0,0.0,93,0.00,,,0.02,0,Wunderground v.1.15,2014-07-31 08:20:00,
2014-07-31 04:25:00,75.6,73.4,29.83,West,260,0.0,0.0,93,0.00,,,0.02,0,Wunderground v.1.15,2014-07-31 08:25:00,
2014-07-31 04:35:00,75.5,73.3,29.83,West,260,0.0,0.0,93,0.00,,,0.02,0,Wunderground v.1.15,2014-07-31 08:35:00,
2014-07-31 04:45:00,75.4,73.2,29.83,West,260,0.0,0.0,93,0.00,,,0.02,0,Wunderground v.1.15,2014-07-31 08:45:00,
2014-07-31 04:50:00,75.4,73.2,29.83,West,260,0.0,0.0,93,0.00,,,0.02,0,Wunderground v.1.15,2014-07-31 08:50:00,
2014-07-31 04:55:00,75.4,73.2,29.83,West,260,0.0,0.0,93,0.00,,,0.02,0,Wunderground v.1.15,2014-07-31 08:55:00,
2014-07-31 05:00:00,75.4,73.2,29.83,West,260,0.0,0.0,93,0.00,,,0.02,0,Wunderground v.1.15,2014-07-31 09:00:00,
2014-07-31 05:05:00,75.4,73.2,29.83,West,260,0.0,0.0,93,0.00,,,0.02,0,Wunderground v.1.15,2014-07-31 09:05:00,
2014-07-31 05:15:00,75.4,73.2,29.83,West,260,0.0,0.0,93,0.00,,,0.02,0,Wunderground v.1.15,2014-07-31 09:15:00,
2014-07-31 05:20:00,75.3,73.1,29.83,West,260,0.0,0.0,93,0.00,,,0.02,0,Wunderground v.1.15,2014-07-31 09:20:00,
2014-07-31 05:25:00,75.3,73.1,29.83,West,260,0.0,0.0,93,0.00,,,0.02,0,Wunderground v.1.15,2014-07-31 09:25:00,
2014-07-31 05:30:00,75.3,73.1,29.83,West,260,0.0,0.0,93,0.00,,,0.02,0,Wunderground v.1.15,2014-07-31 09:30:00,
2014-07-31 05:35:00,75.3,73.1,29.83,West,260,0.0,0.0,93,0.00,,,0.02,0,Wunderground v.1.15,2014-07-31 09:35:00,
2014-07-31 05:45:00,75.5,73.7,29.83,West,262,0.0,1.0,94,0.00,,,0.02,0,Wunderground v.1.15,2014-07-31 09:45:00,
2014-07-31 05:50:00,75.6,73.8,29.82,West,262,0.0,0.0,94,0.00,,,0.02,0,Wunderground v.1.15,2014-07-31 09:50:00,
2014-07-31 05:55:00,75.6,73.8,29.82,West,263,0.0,1.0,94,0.00,,,0.02,0,Wunderground v.1.15,2014-07-31 09:55:00,
2014-07-31 06:00:00,75.7,73.8,29.82,West,261,0.0,0.0,94,0.00,,,0.02,0,Wunderground v.1.15,2014-07-31 10:00:00,
2014-07-31 06:05:00,75.7,73.8,29.83,West,261,0.0,1.0,94,0.00,,,0.02,0,Wunderground v.1.15,2014-07-31 10:05:00,
2014-07-31 06:15:00,75.8,73.6,29.83,West,261,0.0,0.0,93,0.00,,,0.02,0,Wunderground v.1.15,2014-07-31 10:15:00,
2014-07-31 06:20:00,75.8,73.6,29.83,West,261,0.0,0.0,93,0.00,,,0.02,0,Wunderground v.1.15,2014-07-31 10:20:00,
2014-07-31 06:25:00,75.8,73.6,29.83,WSW,258,0.0,0.0,93,0.00,,,0.02,0,Wunderground v.1.15,2014-07-31 10:25:00,
2014-07-31 06:30:00,75.9,73.7,29.83,WSW,258,0.0,0.0,93,0.00,,,0.02,0,Wunderground v.1.15,2014-07-31 10:30:00,
2014-07-31 06:35:00,75.8,73.6,29.84,WSW,258,0.0,0.0,93,0.00,,,0.02,0,Wunderground v.1.15,2014-07-31 10:35:00,
2014-07-31 06:45:00,75.8,73.6,29.84,WSW,258,0.0,0.0,93,0.00,,,0.02,0,Wunderground v.1.15,2014-07-31 10:45:00,
2014-07-31 06:50:00,75.7,73.5,29.84,WSW,258,0.0,0.0,93,0.00,,,0.02,0,Wunderground v.1.15,2014-07-31 10:50:00,
2014-07-31 07:00:00,75.6,73.4,29.85,WSW,258,0.0,0.0,93,0.00,,,0.02,7,Wunderground v.1.15,2014-07-31 11:00:00,
2014-07-31 07:05:00,75.6,73.4,29.85,WSW,258,0.0,0.0,93,0.00,,,0.02,11,Wunderground v.1.15,2014-07-31 11:05:00,
2014-07-31 07:10:00,75.5,73.3,29.85,WSW,258,0.0,0.0,93,0.00,,,0.02,14,Wunderground v.1.15,2014-07-31 11:10:00,
2014-07-31 07:15:00,75.5,73.3,29.85,WSW,258,0.0,0.0,93,0.00,,,0.02,19,Wunderground v.1.15,2014-07-31 11:15:00,
2014-07-31 07:25:00,75.7,73.5,29.85,WSW,248,0.0,0.0,93,0.00,,,0.02,37,Wunderground v.1.15,2014-07-31 11:25:00,
2014-07-31 07:35:00,76.0,74.1,29.85,SW,215,0.0,1.0,94,0.00,,,0.02,76,Wunderground v.1.15,2014-07-31 11:35:00,
2014-07-31 07:40:00,76.1,74.2,29.85,SW,231,0.0,0.0,94,0.00,,,0.02,74,Wunderground v.1.15,2014-07-31 11:40:00,
2014-07-31 07:45:00,76.3,74.4,29.85,SW,230,0.0,0.0,94,0.00,,,0.02,47,Wunderground v.1.15,2014-07-31 11:45:00,
2014-07-31 07:50:00,76.5,74.6,29.85,SW,230,0.0,0.0,94,0.00,,,0.02,40,Wunderground v.1.15,2014-07-31 11:50:00,
2014-07-31 08:00:00,76.7,74.5,29.85,WSW,254,0.0,0.0,93,0.00,,,0.02,47,Wunderground v.1.15,2014-07-31 12:00:00,
2014-07-31 08:10:00,76.9,74.7,29.85,WSW,254,0.0,0.0,93,0.00,,,0.02,53,Wunderground v.1.15,2014-07-31 12:10:00,
2014-07-31 08:15:00,77.0,74.8,29.85,WSW,254,0.0,0.0,93,0.00,,,0.02,56,Wunderground v.1.15,2014-07-31 12:15:00,
2014-07-31 08:20:00,77.1,74.9,29.86,WSW,254,0.0,0.0,93,0.00,,,0.02,62,Wunderground v.1.15,2014-07-31 12:20:00,